Voltar ao catálogo

STARLINK-30495

AtivoComunicaçõesVLEO
NORAD 57968·PAYLOAD·🇺🇸 United States

Lançado Sep 30, 2023 de Cape Canaveral Space Force Station

Loading…

Próximas Passagens (próximas 24 horas)

TLE

AtualizadoSource: CelesTrak SupGP

Época: Sep 14, 2026, 20:45 UTC

1 57968C 23151E   26257.86506944  .00000058  00000+0  21133-5 0  2575
2 57968  43.0034 347.6606 0001474 271.3041 250.0815 15.27582714    11

Acompanhe STARLINK-30495 em tempo real com AllMySat

Download on the App Store